Theta_e
299 290 288 288 292 294 297 292 293 298 297 295 294 292 291 290 289 295 296 300 301 298 296 297 295 294 295 296 298 301 303 302 302 301 302 303 302 302 304 305 306 306 306 307 306 306 306 306 306 303 301 300 299 299 299 299 299 300 300 301 301 301 302 301 300 300 300 299 299 300 299 298 298 298 297 297 297 296 295 294 294 293 293 293 293 292
298 289 289 291 292 291 290 291 296 297 297 294 292 290 289 290 287 293 295 299 302 297 292 295 294 294 295 297 298 300 301 299 301 301 302 303 303 303 303 304 306 308 309 308 306 305 306 306 307 303 302 300 297 298 298 298 299 300 300 300 301 301 301 301 301 301 300 300 299 299 299 299 298 297 296 295 295 294 294 293 293 293 292 292 292 291
291 288 291 293 293 293 293 292 299 296 294 293 290 288 287 287 290 293 294 298 300 297 291 294 292 292 294 296 298 298 299 301 303 304 303 303 303 304 305 305 306 306 306 307 306 306 306 306 306 304 302 301 299 298 298 299 300 300 300 301 302 301 301 302 302 302 301 301 301 301 300 299 298 299 298 297 295 294 292 292 292 292 292 291 291 291
286 290 293 295 292 292 293 295 298 297 296 292 290 288 286 288 288 285 291 297 297 296 292 294 292 292 295 297 297 299 300 301 303 303 304 306 304 304 305 306 305 305 305 305 305 305 306 306 305 304 302 301 301 299 299 300 300 299 300 301 301 302 302 302 302 302 302 301 300 300 300 299 299 296 295 294 293 293 292 291 291 291 291 291 290 290
288 290 294 293 292 294 293 296 296 294 292 293 293 291 288 288 291 292 289 296 298 298 298 295 292 291 293 293 294 297 300 300 301 302 302 305 307 307 307 307 308 306 305 305 306 306 306 306 305 304 303 302 301 301 300 300 300 299 300 301 301 302 301 301 302 301 300 299 298 297 297 297 295 295 294 294 293 293 291 291 290 289 290 290 290 290
291 292 294 295 293 294 295 293 293 295 290 293 294 293 292 294 292 292 293 292 289 289 295 293 286 286 293 295 295 296 296 297 300 300 300 303 303 305 305 306 308 308 308 307 308 307 306 307 307 305 304 301 301 301 302 301 300 300 301 301 301 302 301 301 301 301 299 298 296 295 295 295 295 294 294 294 294 292 292 290 289 289 289 289 289 289
290 294 292 294 292 290 293 291 287 291 292 291 291 298 297 295 294 292 292 292 287 285 291 294 286 283 291 292 295 296 297 298 299 298 300 302 303 303 304 306 306 307 308 309 310 309 308 307 306 306 304 302 301 302 303 301 300 300 301 301 301 302 301 302 301 301 300 299 298 297 297 298 297 296 297 297 295 293 291 290 289 288 288 288 288 288
290 290 290 290 290 292 290 290 288 291 294 289 295 299 297 295 293 292 293 292 288 293 292 292 291 288 286 292 295 297 296 298 298 299 300 301 302 303 304 305 306 307 309 309 309 310 310 309 307 305 305 304 302 303 302 302 301 300 300 302 302 302 302 302 301 300 300 298 298 299 300 300 299 298 297 294 293 292 290 289 289 288 288 288 288 287
287 287 286 287 289 288 287 287 288 290 294 293 297 299 296 295 294 294 294 291 292 291 286 292 291 289 287 291 295 295 295 296 297 298 299 300 302 303 303 304 305 307 309 310 309 310 310 309 308 308 307 307 304 301 301 301 300 301 301 302 302 302 302 301 300 300 299 299 298 299 299 298 298 298 296 293 292 291 290 289 288 288 287 287 287 287
287 288 285 283 287 286 286 288 288 289 293 295 298 298 296 296 295 295 294 292 290 288 284 286 286 286 286 289 291 293 295 296 298 300 301 301 301 303 304 304 305 307 308 309 310 310 311 311 310 310 309 308 305 304 303 302 302 301 301 300 301 301 301 301 299 299 298 299 299 299 299 299 297 296 294 293 292 290 290 289 288 288 287 287 287 286
289 289 287 286 286 287 286 288 289 290 296 300 298 295 295 294 293 292 291 291 288 284 284 285 286 288 285 288 292 292 295 298 300 300 301 302 302 303 305 305 306 306 307 307 309 310 311 312 311 309 307 306 306 305 304 302 301 301 301 301 300 300 301 300 299 298 297 298 298 299 299 299 297 295 294 292 291 290 290 289 288 288 287 287 286 286
289 288 287 287 289 286 287 294 292 296 300 297 292 291 291 289 292 291 290 292 284 282 284 286 286 288 284 286 291 297 297 298 300 300 299 300 302 303 304 304 305 305 306 307 308 308 310 310 310 308 305 304 304 303 301 301 300 300 300 301 300 299 299 299 298 298 298 299 299 300 299 299 297 295 294 293 292 291 291 290 288 288 287 286 286 286
288 286 288 288 287 289 289 295 296 298 298 294 292 291 287 283 285 282 286 282 283 281 284 286 288 287 287 291 294 296 297 297 298 300 301 302 303 304 304 305 305 305 306 306 307 308 308 308 308 307 306 304 301 301 301 298 298 298 298 299 299 298 298 298 297 299 299 298 298 298 298 298 296 296 296 295 293 292 291 290 288 288 287 287 286 285
287 287 288 288 288 291 290 291 290 291 294 292 289 287 285 281 280 278 280 282 283 283 286 286 290 287 291 293 297 296 296 295 297 299 299 300 302 303 304 304 304 304 305 306 307 308 308 308 308 308 306 304 301 300 299 298 297 297 297 298 299 298 298 298 298 298 297 297 297 297 297 297 296 296 296 295 293 292 291 290 289 288 287 286 285 284
282 283 287 287 287 290 288 290 290 293 294 293 291 288 288 285 282 277 280 279 280 281 284 287 285 285 287 289 293 295 293 293 293 293 294 294 295 295 296 298 303 304 304 306 306 307 308 308 308 307 306 303 300 299 298 297 297 297 297 299 299 298 297 297 297 297 297 296 296 296 297 296 296 295 295 293 292 290 289 289 288 287 287 286 285 284
281 283 289 291 289 288 286 287 288 291 293 293 289 290 288 285 288 283 282 282 281 282 282 285 286 289 291 293 291 291 291 292 292 293 293 295 295 295 296 296 296 301 303 305 306 307 308 308 308 308 306 304 301 299 298 298 297 298 298 299 299 298 297 297 296 296 296 296 295 295 295 295 295 294 293 291 290 290 289 288 288 286 286 285 284 284
285 283 291 291 289 289 288 288 287 288 288 292 289 286 285 288 287 281 281 280 280 284 282 285 287 291 295 292 291 291 291 293 292 293 294 296 296 297 298 298 298 299 302 304 305 306 307 308 308 308 306 304 302 300 299 298 298 299 299 299 299 298 297 296 296 296 296 294 294 294 294 294 293 293 291 290 288 288 288 288 287 286 285 285 284 283
285 284 291 289 289 290 286 287 287 287 290 290 286 287 288 287 287 287 281 281 282 280 280 282 285 286 288 285 291 290 290 293 293 293 294 295 296 299 300 299 299 300 301 304 305 306 307 307 307 307 306 305 303 301 299 298 298 300 300 299 298 296 295 295 295 294 294 293 293 293 293 293 292 292 290 289 288 288 287 287 286 286 285 284 284 283
288 285 288 289 287 292 288 289 291 290 290 290 288 289 285 284 284 285 285 278 278 278 279 281 280 282 286 288 291 290 291 293 293 294 293 297 298 300 299 299 299 301 301 302 304 305 305 306 306 306 306 305 303 301 300 299 299 299 299 299 298 296 296 295 294 294 293 293 293 293 292 291 290 290 289 288 288 288 287 286 286 285 284 283 284 283
289 285 286 290 289 290 290 290 285 285 291 288 289 288 285 286 283 284 281 282 284 277 277 279 280 282 286 290 290 290 290 289 290 293 295 297 298 299 299 299 299 299 301 302 303 304 305 306 306 305 305 303 301 300 298 298 298 297 297 297 297 296 295 294 293 291 291 292 292 291 290 290 289 289 288 288 287 287 286 286 285 284 283 283 283 283
288 287 284 290 290 289 286 282 282 281 282 285 287 285 286 283 283 283 281 280 280 280 278 279 278 282 287 289 289 289 289 288 288 293 296 296 297 296 296 297 299 299 301 302 303 303 303 303 303 302 302 302 300 299 298 298 297 297 297 296 295 294 293 292 291 291 291 291 291 290 289 288 288 287 287 287 287 286 286 285 285 284 284 283 283 283
287 288 285 285 285 284 282 280 279 280 280 281 282 283 283 284 284 281 278 279 276 280 275 278 278 284 288 286 288 289 289 288 288 289 293 294 295 295 296 295 296 298 298 300 301 302 302 302 301 300 299 299 298 298 297 298 297 296 296 296 295 294 293 291 290 291 290 290 290 289 288 287 287 287 286 286 286 286 285 285 284 284 283 283 283 283
287 286 286 282 282 283 282 280 279 279 280 281 282 283 282 282 284 283 278 279 278 276 275 279 279 282 288 286 286 287 288 288 287 287 290 291 292 294 294 294 294 296 297 298 298 299 299 300 299 298 297 297 297 297 297 297 297 296 295 294 294 293 292 291 291 291 290 290 289 289 288 287 286 286 286 286 285 285 285 285 284 283 283 283 283 283
287 286 284 283 283 282 281 281 279 277 279 282 282 281 281 283 282 283 284 283 281 276 279 280 278 282 288 286 286 286 286 286 286 286 288 290 291 291 292 293 293 294 294 295 295 296 297 297 296 296 296 296 296 296 296 296 296 295 294 294 293 292 291 291 291 291 290 289 289 288 287 286 286 285 285 285 286 285 285 284 284 283 283 283 283 283
285 283 285 281 281 283 282 282 282 280 281 282 282 281 278 279 279 278 279 279 281 278 278 280 276 282 288 286 286 285 285 287 288 288 287 290 292 292 292 293 293 294 294 293 294 294 294 294 294 295 296 296 296 295 295 295 295 294 293 293 292 292 292 291 291 290 290 289 288 287 286 286 285 285 285 286 286 285 285 284 284 283 283 283 283 282
285 281 283 280 275 272 271 274 280 284 283 282 281 281 280 280 280 283 283 283 280 276 276 279 281 286 289 288 288 287 287 289 288 288 287 289 291 291 292 293 293 293 294 293 293 293 293 294 295 295 295 295 295 295 294 294 294 293 293 292 293 292 291 290 290 290 289 289 287 286 286 286 285 285 285 285 285 285 284 284 283 283 283 283 283 282
278 275 276 280 280 280 281 280 277 277 280 283 283 281 281 280 279 281 285 283 282 278 278 282 282 284 286 287 287 288 289 289 290 290 290 291 290 290 291 292 293 293 294 293 293 294 294 293 293 294 294 295 294 294 294 294 294 293 292 292 292 292 291 290 289 289 289 288 288 286 286 286 286 286 285 285 285 285 284 284 283 283 283 283 283 282
280 284 275 272 275 278 277 277 276 276 279 280 280 282 280 280 280 282 284 283 283 281 282 283 279 282 286 287 287 288 288 287 288 288 289 289 290 292 293 292 291 291 291 292 292 292 293 294 294 294 294 293 293 293 294 294 293 293 292 292 291 291 290 290 289 289 288 288 288 287 286 286 286 286 286 286 285 285 284 284 283 283 283 283 282 281
286 282 275 275 275 276 275 276 274 275 277 278 279 279 281 281 280 280 282 284 283 283 283 282 280 282 287 288 290 290 290 290 291 291 291 287 286 288 289 291 292 293 292 291 292 292 293 293 294 293 293 293 293 292 293 293 292 292 292 292 291 290 290 289 289 288 288 288 288 287 287 286 286 286 285 285 285 284 284 284 283 283 283 283 282 281
284 279 272 271 274 274 275 275 274 275 275 275 277 278 280 280 281 282 282 280 281 283 281 280 279 281 285 287 290 291 292 291 290 289 287 287 288 289 290 291 293 294 293 293 293 293 293 294 294 294 293 293 293 292 292 292 292 292 292 291 290 290 290 289 289 288 288 288 288 288 287 286 285 285 285 285 284 284 284 283 283 282 282 282 282 281
283 279 277 271 277 275 275 274 273 273 273 274 279 278 276 277 278 279 279 277 276 279 280 279 280 282 290 291 291 292 288 288 287 287 289 290 289 288 289 291 292 293 294 294 294 293 293 293 293 293 293 293 293 293 293 293 293 292 292 291 290 290 290 289 289 289 288 288 289 288 287 286 285 285 284 285 285 284 283 283 282 282 282 282 281 281
284 279 271 273 279 278 275 273 275 271 272 273 274 276 274 276 277 278 279 282 281 282 279 281 281 284 291 289 289 288 287 287 289 290 290 290 289 287 288 290 291 293 293 294 293 293 292 292 292 292 292 293 293 293 293 293 292 292 291 292 290 290 289 289 289 289 289 289 289 288 287 286 285 284 284 285 284 284 283 283 282 282 282 281 281 281
280 281 280 280 279 276 277 272 272 270 273 277 280 283 281 279 282 280 280 280 284 286 283 282 286 291 291 288 289 289 288 289 288 288 290 289 289 288 289 290 291 292 293 294 293 292 293 292 292 293 293 293 294 293 294 294 293 292 292 292 291 290 289 288 289 289 289 289 288 288 287 286 285 285 284 284 284 284 283 282 282 282 281 281 281 281
278 282 279 276 278 278 274 268 271 276 274 279 282 278 280 281 281 280 282 282 282 286 288 290 291 289 286 287 289 290 290 290 290 291 290 291 291 290 289 289 291 292 292 293 294 294 294 294 293 294 294 295 295 295 295 294 293 293 293 292 291 290 289 288 288 289 289 289 288 288 287 286 285 285 285 284 284 283 283 282 282 282 282 282 281 280
279 277 277 273 279 279 276 273 277 269 276 283 277 279 277 277 280 282 284 283 283 285 286 286 287 287 289 289 289 290 290 290 289 288 288 288 288 289 290 290 290 290 290 291 292 293 294 294 294 294 294 294 294 294 294 293 293 293 293 292 290 290 289 288 289 289 289 288 288 288 287 286 285 285 285 284 284 283 283 282 282 282 282 282 281 281
279 281 276 275 273 274 275 274 269 277 283 280 277 277 278 277 278 279 281 284 284 284 285 285 287 290 290 289 289 289 287 287 286 287 288 290 289 289 288 289 291 290 290 291 292 293 294 294 294 294 294 294 294 293 294 293 293 293 292 292 291 289 289 289 289 289 289 289 288 287 287 286 286 285 285 284 283 283 283 283 283 282 282 282 282 282
283 279 281 278 272 274 273 272 278 279 280 282 281 280 279 282 280 282 282 288 286 284 284 285 287 288 288 288 287 286 284 284 287 293 291 290 290 289 290 291 291 292 292 292 293 294 295 295 295 295 294 293 293 293 293 293 293 292 291 290 290 289 289 289 288 289 289 288 288 288 287 287 286 285 285 284 283 283 283 283 283 283 283 282 282 281
282 283 282 280 275 275 277 276 276 277 273 283 285 283 282 282 283 282 283 285 287 282 285 287 286 287 287 286 285 285 283 286 290 291 292 289 288 290 289 290 291 291 291 291 292 292 292 293 293 293 293 292 292 292 293 293 292 292 291 290 290 289 288 288 289 289 289 289 289 288 287 287 286 286 285 284 284 283 283 284 284 283 283 282 282 281
280 281 282 283 277 274 273 273 270 270 279 285 285 284 283 281 282 282 284 284 290 286 284 286 287 287 287 288 288 284 287 287 288 291 295 291 290 289 290 291 290 290 290 290 290 290 290 291 292 292 292 292 291 292 292 292 291 291 290 290 289 289 289 288 289 289 289 289 289 289 288 287 287 286 286 285 285 284 284 284 284 284 283 282 283 283
279 278 280 278 272 271 272 271 275 272 277 283 283 283 282 281 281 283 279 282 292 286 285 285 287 288 289 286 286 286 288 287 289 292 291 289 289 289 289 291 291 290 290 289 288 288 289 289 289 289 290 290 291 292 291 291 291 290 291 290 290 289 289 289 290 290 291 290 290 289 288 287 287 286 286 286 285 285 285 285 284 283 283 282 282 282
277 276 276 279 277 274 274 275 274 279 284 283 283 281 280 279 283 280 277 287 290 288 285 286 288 289 288 285 287 290 292 293 294 293 288 286 287 289 288 287 288 289 288 289 289 286 286 287 288 289 290 291 292 291 290 290 290 290 290 290 289 289 290 291 291 291 291 290 290 289 288 288 287 286 286 287 286 285 285 285 284 284 282 282 281 282
272 270 269 270 275 277 275 276 279 280 286 283 280 281 281 282 279 280 290 288 289 287 286 286 288 288 287 289 289 291 294 292 288 287 287 288 288 289 289 288 287 287 286 286 285 285 286 286 286 287 288 290 291 290 290 290 289 290 290 290 290 291 292 291 291 291 291 290 289 289 288 288 287 286 286 286 286 285 284 285 284 283 282 282 281 280
280 277 276 278 273 272 272 274 274 274 282 282 282 282 281 283 287 294 289 285 286 287 286 285 286 288 286 289 289 291 291 290 289 289 289 288 287 288 289 288 288 289 289 288 287 285 285 286 286 286 287 289 289 289 289 289 288 289 289 289 291 292 291 291 291 291 290 289 289 288 288 287 286 285 285 285 285 285 284 283 283 282 282 281 280 280
282 280 275 274 278 279 272 271 276 289 286 285 288 287 284 288 290 288 290 292 286 285 287 287 286 287 287 289 290 288 288 287 287 288 288 288 287 287 286 286 285 285 286 286 286 286 285 285 286 286 287 287 288 288 288 288 288 288 288 289 291 289 289 290 289 289 289 287 288 287 287 286 285 285 285 284 284 284 284 282 281 281 280 280 280 280
282 284 283 282 281 280 280 284 288 284 284 286 288 289 289 289 286 287 288 289 290 290 286 287 290 288 286 287 287 288 287 287 288 289 288 289 289 288 287 288 287 287 287 287 287 286 284 285 286 286 286 286 287 287 288 288 288 287 288 290 290 288 288 288 287 287 287 287 287 286 286 285 285 284 283 283 283 283 283 281 279 280 279 279 279 280
279 280 280 281 282 282 283 285 288 284 283 285 287 287 286 287 286 283 285 288 289 290 289 290 291 289 286 285 286 286 286 288 288 288 287 287 287 288 287 287 286 286 285 285 285 285 284 284 284 285 285 286 286 286 287 287 288 287 288 290 290 289 287 286 285 285 286 286 286 286 285 284 283 283 283 282 282 283 283 282 279 281 280 278 279 279
279 277 280 282 283 281 281 284 282 285 286 286 288 289 290 288 288 287 285 286 289 289 287 287 288 288 288 285 286 288 289 289 288 288 288 287 287 287 287 286 287 287 286 286 286 285 284 283 284 284 284 285 286 286 286 287 288 289 290 289 289 288 287 285 285 285 285 285 286 285 284 284 284 283 281 281 282 282 283 283 281 281 280 279 279 279
282 279 283 282 280 282 285 286 284 285 285 286 286 287 287 289 289 289 288 289 289 289 288 288 287 285 285 285 286 286 287 288 287 287 287 288 288 287 287 287 287 287 287 286 286 284 284 284 285 285 284 285 286 286 286 286 287 288 288 288 288 287 286 285 285 285 285 284 285 285 283 284 279 280 281 280 281 281 282 282 282 281 281 280 280 280
279 280 282 281 282 284 285 286 288 288 288 289 288 286 288 289 290 290 288 287 286 285 286 286 286 287 286 287 287 286 286 286 287 287 286 287 287 287 287 287 287 287 286 286 285 283 284 285 285 285 285 286 286 286 285 286 286 287 287 287 287 286 285 285 284 285 285 285 285 284 283 284 283 282 282 281 280 281 282 281 281 281 282 283 283 283
281 281 282 280 279 281 283 288 286 284 287 291 288 287 288 288 286 287 286 284 284 285 285 285 285 285 285 286 286 286 285 287 287 287 286 286 286 287 287 287 287 286 286 285 285 284 284 284 285 285 285 285 286 285 285 285 286 286 287 286 286 285 285 285 285 284 285 285 285 285 283 283 283 282 282 281 280 279 280 277 279 281 282 282 280 280
284 284 283 283 282 283 288 288 288 290 291 290 292 290 287 284 285 285 285 286 287 287 286 286 286 286 285 284 284 285 285 287 287 287 286 286 286 287 287 286 286 286 286 285 284 283 282 283 283 283 284 285 285 285 285 285 285 286 286 286 285 285 285 285 285 285 285 284 284 284 283 283 283 282 282 281 281 280 279 280 278 278 279 280 280 278
Wind_Speed
1 6 4 4 6 6 6 2 7 7 11 13 11 13 12 9 4 2 2 0 6 5 6 10 13 14 13 11 10 11 11 10 9 10 9 8 8 7 8 9 9 9 7 7 8 6 5 4 3 4 5 5 6 5 7 7 7 7 7 7 7 6 6 7 6 6 6 6 5 4 5 4 4 4 4 3 3 3 4 4 4 4 4 4 4 5
3 6 2 4 5 5 7 4 5 14 11 12 13 11 9 8 6 4 2 5 5 3 3 10 13 12 12 12 10 9 11 12 13 11 9 9 9 6 9 9 11 10 7 8 7 8 7 6 4 3 4 6 8 7 8 9 8 7 8 8 7 6 7 6 6 6 6 6 5 5 5 4 4 4 4 4 3 4 4 4 4 4 4 5 5 5
4 3 3 5 4 5 5 3 7 15 14 9 10 8 9 3 4 4 6 6 5 6 4 9 11 8 9 9 9 8 8 5 6 8 10 10 10 8 8 8 9 9 9 9 8 9 8 7 6 4 5 6 7 7 8 8 8 7 7 7 7 6 6 5 5 6 5 3 1 2 4 5 4 3 3 4 4 4 4 4 4 4 4 4 4 5
6 3 6 7 2 3 2 1 9 12 12 10 7 7 4 7 7 3 4 1 6 2 7 8 10 7 6 6 6 6 4 3 3 1 4 7 9 10 11 10 11 10 11 12 11 11 11 10 8 5 6 7 6 6 6 7 9 7 7 7 6 6 6 5 5 3 4 4 5 6 6 5 3 4 5 5 5 5 4 4 4 4 4 4 4 5
3 2 6 6 3 5 6 8 12 9 8 8 11 6 7 8 3 1 5 5 4 5 8 11 8 4 3 6 5 4 4 4 3 3 2 4 6 8 8 9 9 11 11 11 11 11 11 12 12 11 9 7 7 7 7 7 7 5 8 6 6 6 6 6 6 6 6 7 7 6 7 6 7 6 4 4 4 3 3 3 3 4 4 4 4 4
4 5 5 2 2 4 6 7 2 4 10 7 2 7 11 8 10 10 11 9 3 4 4 2 4 2 2 4 5 5 3 4 5 6 8 6 7 6 8 9 9 8 9 11 13 13 13 13 12 12 9 8 7 8 7 6 6 6 6 6 6 5 6 7 8 8 7 6 7 7 6 6 5 5 5 5 5 4 3 3 3 3 4 4 4 4
3 10 5 2 5 5 5 5 3 5 9 7 3 5 10 11 10 10 10 2 4 6 3 3 1 7 1 5 6 6 7 8 6 8 9 9 9 8 8 8 9 11 11 9 9 10 11 12 12 12 11 10 10 9 6 5 6 6 4 6 6 6 6 6 7 8 6 6 6 7 7 5 5 5 4 3 4 4 4 3 3 3 4 4 4 4
6 8 6 4 4 5 3 5 3 3 9 5 1 8 10 13 10 9 6 3 5 5 4 1 1 4 7 3 2 4 7 9 10 11 11 9 10 11 9 9 9 10 11 12 12 13 13 12 13 14 13 10 10 7 6 5 5 6 5 6 7 6 6 6 6 7 7 6 5 5 3 3 3 3 4 5 5 4 4 4 3 3 3 3 3 3
2 5 8 6 5 5 3 0 6 5 4 3 1 9 9 10 9 7 4 7 6 4 4 6 9 4 3 2 3 2 5 8 10 11 11 11 11 12 11 10 11 11 11 12 12 13 13 12 12 12 13 12 7 7 6 6 5 5 5 6 6 6 7 7 8 7 6 4 5 4 4 3 2 3 5 5 5 4 4 4 3 3 3 3 3 3
1 2 4 2 1 3 2 3 4 4 9 2 8 11 8 7 4 3 4 5 1 1 5 6 6 2 4 2 2 0 4 8 10 10 10 11 13 12 12 12 12 11 10 10 11 12 13 13 12 10 7 9 8 8 4 5 5 5 5 6 7 7 7 7 9 7 6 5 5 5 5 6 5 4 5 5 5 5 4 4 4 3 2 2 2 4
1 1 4 2 2 1 2 4 1 4 5 8 13 9 5 4 3 3 2 2 1 4 4 5 6 4 5 4 7 8 7 6 6 3 6 8 9 11 11 12 12 12 11 11 11 11 11 11 10 8 9 10 8 7 6 5 6 6 7 8 8 7 6 7 8 8 6 5 5 5 6 7 7 7 7 6 5 5 4 4 3 2 2 1 2 3
1 2 2 2 1 2 1 6 1 3 9 9 4 5 9 6 4 2 1 2 1 4 3 6 5 6 4 3 4 5 2 1 6 8 9 9 10 10 10 10 11 12 11 11 11 10 10 9 8 9 9 9 9 8 8 5 5 7 7 7 8 6 7 7 7 7 6 5 5 5 6 7 7 8 6 7 7 6 5 4 3 2 2 2 3 3
4 4 3 2 3 4 5 7 6 7 6 7 7 2 0 3 2 3 1 3 4 3 3 5 6 1 3 4 4 7 5 4 3 2 6 8 8 9 9 10 10 11 12 12 12 11 10 10 11 11 10 9 9 10 10 8 7 6 6 9 9 8 7 7 7 7 7 6 6 5 6 6 6 6 6 6 6 5 4 3 3 2 2 2 3 3
4 3 10 6 2 3 2 6 7 7 6 8 5 3 0 4 4 5 3 1 3 2 3 3 2 1 2 0 2 5 2 2 3 1 1 1 4 5 6 8 9 10 12 12 11 11 10 10 10 11 11 10 8 9 9 9 8 6 6 9 9 8 7 6 6 6 7 6 6 6 5 5 5 5 5 5 6 5 4 3 3 2 3 3 3 3
3 2 8 8 4 8 5 5 1 4 7 3 1 1 2 1 2 5 1 2 3 3 1 2 2 2 5 5 2 3 2 1 1 0 1 3 4 4 1 1 5 10 11 10 10 10 11 10 10 10 10 9 8 9 9 8 8 8 8 9 9 9 7 6 6 6 7 6 6 6 5 5 4 5 4 4 5 5 5 4 4 3 3 3 3 3
3 2 4 2 3 3 3 4 1 2 4 1 1 2 1 2 2 3 2 1 3 3 1 1 1 1 1 1 2 1 1 2 1 2 2 4 3 3 3 5 6 7 9 10 10 10 10 10 10 9 9 9 9 10 8 10 9 9 9 10 9 9 9 7 7 6 7 6 6 6 6 5 5 4 5 5 5 5 5 4 4 4 4 3 3 3
1 7 5 3 1 3 4 2 2 2 2 2 1 2 3 4 2 6 3 3 1 0 2 1 3 3 3 2 2 2 3 4 3 3 3 3 3 3 5 5 6 7 8 10 10 9 10 9 9 9 10 9 9 9 10 11 10 11 10 10 10 8 8 8 8 7 6 7 7 7 6 6 6 6 7 7 7 6 5 4 4 4 4 4 3 2
3 2 1 3 4 1 2 1 2 0 2 1 3 2 2 1 2 1 3 1 1 1 2 1 1 1 3 4 3 3 4 6 6 5 3 2 2 5 4 4 5 7 8 11 11 9 9 9 9 8 8 10 11 11 10 10 9 9 9 10 11 9 10 8 8 7 7 8 7 7 7 6 6 6 7 7 8 6 5 5 4 4 4 3 2 2
2 6 3 2 4 2 3 2 1 3 2 1 4 2 2 1 2 2 0 2 2 2 1 2 2 3 4 4 2 5 2 2 4 3 3 3 3 3 3 3 4 6 8 11 11 10 10 10 11 10 10 9 9 8 8 9 8 7 7 7 9 11 10 10 7 6 6 7 5 5 6 7 6 6 6 6 7 6 5 5 4 4 4 3 3 3
2 2 2 1 0 4 3 3 3 5 3 3 1 1 1 2 2 1 2 1 2 2 1 1 2 3 2 2 2 3 4 4 1 3 4 1 1 2 2 3 4 6 9 10 10 9 9 9 9 9 9 10 9 9 8 8 7 9 8 9 8 8 9 8 7 7 7 6 5 5 5 5 6 6 7 7 7 6 6 5 5 5 4 3 3 3
0 2 3 2 1 2 1 6 3 3 4 3 1 2 1 3 1 1 2 2 1 1 1 1 2 2 2 0 2 3 3 3 2 1 1 1 1 1 1 2 3 4 6 8 8 7 7 7 7 6 6 6 6 7 8 8 9 9 8 9 10 11 10 8 7 7 7 7 6 7 8 7 7 7 6 7 6 6 6 5 5 5 3 3 3 3
1 1 3 1 3 5 2 1 1 1 2 2 3 3 2 0 0 0 2 2 1 1 1 0 3 1 2 1 1 2 1 1 1 2 2 1 1 1 1 1 1 3 3 4 5 6 6 7 6 6 4 4 6 7 9 7 8 8 9 8 9 8 8 10 8 7 7 6 7 8 8 8 7 6 6 7 6 6 6 5 5 5 4 4 4 3
2 0 2 3 2 1 1 1 1 2 2 2 3 2 2 0 1 1 2 1 1 2 2 1 0 2 2 1 1 2 2 2 2 2 3 2 2 1 1 0 0 1 2 4 4 4 4 5 5 6 7 8 9 8 9 8 8 8 9 9 8 8 8 8 9 8 7 7 8 8 8 8 7 7 8 7 6 6 6 5 5 5 5 4 4 3
2 2 2 1 1 1 1 1 2 1 2 2 1 2 2 1 2 2 1 1 1 0 1 1 1 2 2 1 2 3 4 4 3 4 4 3 2 1 1 1 2 2 2 2 2 2 3 4 4 5 7 7 7 7 8 7 7 7 7 8 8 9 10 9 8 8 8 7 7 8 8 8 7 8 8 7 6 7 6 6 5 5 5 4 4 4
1 0 1 2 0 0 1 1 1 1 2 2 2 3 2 1 2 1 2 1 1 1 2 1 2 2 2 0 1 2 3 3 3 4 4 3 2 1 2 3 3 2 3 4 4 4 4 4 6 7 6 6 6 6 7 8 8 8 8 8 9 8 9 8 8 8 8 8 9 8 8 8 8 8 8 7 6 7 7 6 6 5 5 5 4 4
2 2 1 0 1 1 0 1 1 1 1 2 1 2 2 3 3 2 0 1 0 1 0 1 0 2 1 1 2 1 1 0 1 2 3 3 3 2 2 4 4 4 4 4 5 5 6 6 5 5 6 5 5 6 7 7 7 7 7 8 7 9 9 8 8 8 8 8 9 8 9 9 8 8 9 8 7 8 7 6 6 6 5 5 5 4
3 2 2 1 0 2 0 0 3 2 2 1 1 2 0 2 1 2 1 0 2 3 1 2 2 4 7 3 3 1 1 1 2 2 2 2 3 3 3 2 4 5 5 6 6 5 4 5 7 6 6 6 6 6 7 8 8 8 8 8 7 7 8 8 8 8 8 8 8 9 9 9 8 8 8 7 7 7 6 6 6 6 6 5 4 5
2 1 4 3 4 2 2 2 2 2 2 2 1 0 1 0 1 1 2 1 5 2 0 1 1 2 1 0 1 2 3 3 4 2 1 1 2 2 3 3 3 4 4 3 4 6 7 7 7 8 8 7 7 7 7 7 7 8 9 9 9 8 8 7 9 9 8 9 8 8 9 8 8 8 7 6 6 7 6 6 6 6 5 5 5 4
0 1 1 2 1 3 2 2 2 1 2 3 4 4 2 2 2 2 2 2 6 2 1 2 3 3 6 3 1 4 4 4 7 9 6 2 2 2 2 4 6 7 7 7 8 8 8 8 8 8 8 8 8 9 9 8 8 7 7 7 8 8 9 9 8 9 8 8 8 8 8 7 6 6 6 6 6 7 7 6 6 6 6 5 4 4
1 2 1 2 2 1 1 2 1 2 3 3 5 6 5 4 4 4 2 1 4 4 2 2 3 11 12 10 9 12 7 7 7 4 4 5 5 3 3 4 6 6 7 8 9 9 8 8 8 9 9 9 10 11 10 9 9 10 10 9 9 9 9 9 9 9 9 9 8 7 7 7 6 7 7 7 7 7 7 7 7 6 6 6 5 5
1 1 3 2 0 1 1 1 2 1 1 4 4 4 2 2 3 4 2 1 2 6 5 4 5 12 7 7 9 2 1 2 3 6 6 5 3 4 4 6 6 7 7 7 7 8 8 8 8 8 9 11 11 12 11 11 10 10 10 9 10 10 9 9 9 9 9 9 8 7 7 7 7 7 8 7 7 7 7 7 7 7 7 6 5 5
3 1 2 1 1 0 1 2 2 2 4 5 7 6 6 5 3 4 5 8 6 4 2 3 2 6 5 1 2 1 1 3 5 4 3 4 3 3 6 7 7 7 7 7 7 7 8 9 9 10 12 12 12 12 11 10 10 10 11 10 10 9 9 9 9 10 9 8 8 8 8 7 8 8 8 7 7 7 7 7 7 7 7 6 6 5
1 3 1 0 0 1 0 2 5 7 4 3 2 3 9 8 2 1 2 2 7 5 5 4 5 2 1 1 1 2 4 4 4 5 6 5 5 6 6 7 8 7 6 6 8 9 9 11 12 12 11 10 10 12 12 11 10 12 12 11 10 8 9 10 10 9 8 8 8 8 8 8 8 8 8 8 8 7 7 7 8 8 7 8 6 5
1 1 1 1 0 1 2 6 4 2 1 0 2 3 1 4 8 8 7 9 10 10 6 3 5 2 1 1 3 6 4 4 2 2 3 4 3 5 7 8 8 6 5 5 7 8 9 8 8 10 11 12 11 10 9 11 12 10 9 9 9 10 10 10 9 9 9 8 9 8 8 8 8 9 8 7 7 7 8 8 9 8 7 6 5 6
2 3 2 0 0 1 3 3 1 1 4 1 1 1 2 3 2 8 8 7 5 11 11 13 13 10 9 5 7 8 8 7 4 9 10 9 9 9 9 8 7 7 7 7 7 9 9 9 9 8 9 11 11 9 9 10 9 7 8 9 10 9 10 10 9 9 9 9 9 9 9 9 9 9 8 8 8 8 8 8 8 8 7 6 6 6
2 2 3 2 1 0 0 1 1 1 1 3 1 1 1 1 1 2 8 10 11 14 13 12 15 12 6 5 6 5 5 7 8 9 10 8 8 9 9 9 9 7 7 7 8 8 8 9 10 10 10 5 6 8 9 10 9 9 9 8 9 9 10 10 10 10 9 9 9 10 10 9 9 9 8 8 8 8 9 9 9 8 7 6 5 5
6 4 0 0 1 0 0 0 7 6 6 1 2 2 5 1 5 2 1 1 5 7 11 11 11 8 7 7 5 2 1 3 3 0 3 4 3 7 9 9 7 8 8 8 7 8 7 7 8 9 6 5 8 9 10 8 8 9 8 9 9 10 10 10 11 11 11 10 11 11 10 10 9 9 9 9 9 9 9 9 9 8 6 6 6 6
0 1 1 0 0 0 0 2 3 2 1 1 2 2 2 3 1 2 0 4 0 3 6 7 6 6 5 3 2 2 0 1 1 1 1 1 3 4 5 6 5 5 6 7 6 7 6 5 5 5 6 8 9 10 8 8 9 9 10 10 10 11 11 11 12 11 11 12 11 10 10 10 10 10 9 9 10 10 9 8 7 7 6 7 7 7
4 4 2 1 2 1 0 1 1 1 0 1 2 1 1 2 1 2 1 1 2 3 6 7 6 5 4 3 1 1 1 0 1 1 1 2 3 3 4 4 4 5 5 5 6 7 6 6 7 6 7 8 10 10 11 11 12 11 11 11 11 11 12 13 12 12 13 12 10 10 10 9 10 10 10 10 10 9 9 9 9 6 6 6 6 6
5 2 1 1 1 0 2 1 3 3 2 1 3 1 1 2 2 1 1 0 1 4 6 7 7 7 6 2 2 1 1 2 1 2 0 1 1 2 4 4 4 5 5 4 5 6 5 3 4 6 9 11 12 10 12 12 12 12 11 11 10 12 14 14 14 12 10 9 10 10 9 9 10 10 10 10 9 8 9 7 6 7 7 6 6 6
0 1 3 2 1 1 1 2 3 5 6 5 3 3 3 2 1 0 1 1 3 5 6 7 8 6 4 5 5 1 4 3 1 0 0 1 4 5 5 6 6 5 6 6 5 2 3 5 7 9 10 8 6 8 10 11 11 12 12 11 12 16 15 11 10 10 10 9 9 10 10 9 10 11 10 9 8 8 7 7 7 7 7 7 6 6
1 2 0 1 2 2 2 2 3 5 5 3 2 3 2 2 0 1 0 1 1 4 6 6 8 6 6 7 6 6 3 2 2 3 4 4 5 7 5 5 5 6 6 6 5 4 4 4 6 8 9 7 7 8 9 11 12 11 12 12 16 17 9 8 10 9 9 10 10 10 10 10 9 6 7 5 6 7 8 7 6 6 6 5 5 7
6 5 3 3 2 3 1 0 3 2 0 6 10 4 1 1 2 1 1 2 2 0 5 6 7 5 7 7 8 8 8 8 7 6 6 5 5 6 5 4 4 7 5 3 3 5 5 4 6 7 7 4 6 7 8 10 12 11 10 14 17 9 9 9 8 9 10 10 10 10 10 8 8 7 5 5 6 6 6 4 5 5 6 7 6 6
2 1 1 2 4 3 3 4 3 2 2 10 10 3 7 8 1 1 1 0 2 2 4 5 6 6 5 7 7 6 6 7 8 8 7 7 6 5 5 5 5 6 6 6 6 4 5 6 6 6 6 5 6 7 7 10 11 11 11 16 6 4 4 7 7 8 9 8 10 9 6 8 8 6 5 7 6 6 5 6 5 5 5 5 5 5
9 3 3 1 4 4 4 5 4 0 1 7 9 4 2 3 0 2 1 2 1 3 3 2 6 4 8 7 5 5 6 7 11 7 7 9 6 6 6 6 6 6 7 7 5 3 5 7 6 5 5 6 8 8 10 10 12 11 15 9 5 4 7 7 8 9 9 8 8 9 8 7 6 6 7 6 7 7 7 8 7 6 5 5 5 5
4 1 3 1 3 6 9 12 5 3 5 7 10 10 8 5 2 2 4 4 6 5 6 6 4 3 4 5 4 5 7 8 7 7 7 8 8 8 5 6 6 6 7 6 7 5 6 5 6 5 7 7 8 9 9 10 11 14 12 5 6 7 7 8 10 10 11 10 9 9 8 9 7 7 7 8 6 7 6 7 7 7 6 5 5 5
2 3 2 2 2 2 4 3 6 7 5 8 10 8 8 9 9 5 4 8 10 4 5 5 5 4 4 5 8 9 10 8 8 8 8 7 8 8 7 7 7 5 6 7 6 3 4 4 6 7 8 8 8 9 9 10 11 11 7 8 7 8 7 9 11 10 9 10 7 7 9 9 7 7 7 7 6 6 6 6 6 6 6 6 6 6
2 4 3 3 1 4 8 3 6 6 7 6 5 5 8 10 10 11 11 9 6 5 6 7 3 6 4 6 9 9 10 8 7 9 7 7 7 7 7 7 8 7 5 5 3 4 3 5 7 8 8 8 8 8 9 9 10 10 8 6 6 8 9 10 11 10 10 10 7 6 7 7 10 9 6 7 7 7 7 6 7 8 8 9 9 8
1 6 4 5 5 6 10 15 17 11 12 14 11 12 11 9 7 8 8 8 8 10 11 8 7 9 7 11 6 6 8 10 9 9 9 8 7 8 8 7 6 7 6 5 4 4 7 6 7 8 8 8 5 7 8 7 8 9 8 7 8 9 10 10 10 10 8 7 6 7 6 7 6 7 6 6 7 7 7 8 9 9 7 5 5 7
4 4 2 3 1 3 7 7 3 0 3 3 2 7 9 8 7 9 4 6 7 10 10 8 7 8 9 9 8 7 10 9 8 7 9 8 8 9 9 7 7 7 6 5 3 5 6 7 7 7 8 7 5 6 7 7 8 8 6 5 7 10 11 10 8 7 8 7 7 6 7 6 6 6 6 6 7 6 6 6 6 5 5 6 9 9
9 10 8 5 5 7 8 9 6 1 3 6 5 3 4 3 5 6 8 9 9 9 7 6 8 6 7 9 8 9 10 9 9 5 8 7 9 7 7 7 7 7 6 4 4 5 7 7 5 6 8 8 5 6 5 7 7 8 8 7 7 9 11 9 7 7 6 7 7 8 8 7 6 7 6 6 5 5 5 5 5 9 11 7 2 4
Wind_Direction
288 187 180 215 216 229 250 84 303 116 117 107 105 117 137 124 127 196 34 256 291 106 93 124 132 141 146 155 154 154 160 151 147 153 155 159 153 155 162 169 170 168 160 153 168 177 174 184 155 138 147 162 165 170 169 169 175 177 175 170 165 152 148 151 150 153 152 154 147 158 171 157 148 139 127 116 98 83 77 70 67 61 56 48 45 40
242 179 56 314 318 310 306 324 203 100 99 109 113 113 123 131 146 172 19 320 314 128 98 121 130 148 146 152 154 149 156 161 165 165 168 164 160 155 165 168 172 166 142 146 155 179 188 194 184 144 146 164 170 183 175 179 179 181 181 182 167 152 161 168 167 161 172 172 180 176 170 149 146 145 153 133 115 92 83 70 65 63 58 49 45 40
163 101 356 327 323 303 300 299 134 117 106 93 106 113 111 116 114 33 331 332 2 57 96 127 129 142 145 145 151 158 160 154 170 174 169 164 169 170 175 171 161 156 156 160 166 174 188 189 186 173 169 178 186 181 180 178 173 181 187 187 170 160 165 166 161 171 179 171 134 160 140 148 128 91 83 97 95 97 90 77 66 60 52 49 50 45
143 37 342 322 319 246 23 157 124 106 108 121 103 129 139 159 148 173 289 348 30 23 149 143 117 113 120 132 145 159 152 141 157 180 150 173 172 179 181 174 166 165 159 169 171 177 183 187 186 190 182 182 179 172 184 175 180 184 195 183 162 155 160 153 166 150 100 97 95 81 97 91 100 123 105 103 107 108 107 87 70 57 50 48 49 42
70 338 306 279 189 262 149 162 142 126 116 129 141 123 134 166 245 96 162 124 83 40 115 134 92 90 138 146 154 158 147 110 159 177 200 199 182 177 175 173 176 172 171 171 175 174 178 182 188 194 191 178 181 186 183 175 181 185 190 171 161 157 159 157 154 147 133 121 106 99 96 98 97 103 129 144 136 123 109 105 76 61 52 49 50 44
38 12 321 143 64 14 141 142 106 128 124 116 27 157 153 151 112 107 128 121 117 97 9 28 108 52 137 159 154 145 141 195 179 190 210 205 196 170 177 187 184 176 176 175 180 179 181 183 185 189 182 181 189 193 188 169 179 180 179 154 152 147 155 159 161 154 154 154 143 147 149 157 156 157 175 189 169 163 148 104 103 81 58 56 54 43
326 331 343 115 129 88 109 93 329 283 130 141 148 142 144 127 127 135 138 139 120 137 159 88 230 128 314 151 147 160 183 196 188 216 211 200 202 201 196 187 186 189 185 186 186 185 182 184 184 187 183 187 191 195 171 162 177 179 168 154 159 161 162 160 163 166 162 156 163 168 175 171 173 172 169 115 118 129 117 121 110 91 72 56 56 50
333 342 24 68 43 58 91 90 344 347 129 114 314 143 126 124 136 143 125 82 97 77 106 180 21 116 145 152 89 155 187 190 203 217 218 211 201 201 202 194 188 187 187 189 190 191 193 188 187 186 190 187 189 169 153 169 172 177 170 159 164 162 162 163 162 171 176 165 165 170 161 152 178 187 142 141 124 114 123 124 114 101 89 67 54 56
358 352 11 33 74 41 48 25 305 290 91 110 171 126 122 124 130 135 100 109 116 142 65 17 342 108 103 87 33 150 186 206 219 210 208 211 210 207 199 195 195 193 190 188 188 189 189 190 195 192 191 191 159 160 165 166 166 158 147 155 155 162 161 165 171 175 182 161 152 159 152 149 109 106 119 124 128 132 135 124 116 107 103 94 78 59
347 35 330 273 356 58 306 302 303 336 86 320 100 71 68 72 54 64 113 113 119 44 66 4 341 104 98 82 207 346 267 223 211 210 209 205 205 203 199 196 194 193 190 193 192 186 189 190 193 191 169 162 170 174 139 153 153 149 149 157 164 163 169 165 177 179 173 161 153 158 158 149 148 136 129 142 145 145 147 130 128 123 115 114 108 77
296 197 223 30 35 313 314 298 312 279 94 116 89 111 97 68 56 26 53 61 202 66 35 344 338 338 136 202 192 172 213 205 176 134 199 205 206 204 199 192 189 190 188 189 193 194 192 188 182 160 171 175 164 153 163 165 158 157 165 166 171 171 165 168 176 176 160 152 167 160 158 159 151 147 148 152 157 151 156 144 131 122 119 121 86 75
339 355 71 349 313 343 94 64 70 164 108 104 104 114 105 61 0 64 3 271 128 78 6 342 336 320 119 162 190 209 72 175 178 184 184 191 199 199 194 192 191 191 191 187 188 190 185 170 168 167 168 167 162 155 166 162 152 159 168 169 164 169 171 165 166 173 152 150 144 142 156 158 153 154 165 171 161 158 151 136 131 146 152 114 89 73
84 71 187 214 214 353 349 118 92 91 79 79 105 131 83 134 152 84 46 93 39 63 2 334 336 283 49 61 97 173 207 174 200 144 185 189 190 193 195 193 189 189 188 186 189 187 183 179 174 177 172 158 158 172 170 164 159 156 167 173 166 174 169 162 161 163 142 137 140 151 156 147 148 167 175 165 146 144 137 133 146 165 124 102 78 65
61 226 31 16 112 347 311 131 131 110 114 125 124 146 65 104 86 97 74 41 94 85 2 324 326 356 15 319 163 204 171 92 147 169 17 212 198 181 176 187 193 193 192 191 189 185 182 180 175 174 169 168 165 168 162 160 161 162 171 177 177 164 163 152 150 145 140 141 141 149 148 145 159 168 165 150 135 130 119 134 141 117 85 77 71 72
89 59 23 2 26 6 1 46 333 94 148 132 5 213 321 53 115 129 186 120 93 81 14 43 269 101 153 116 135 94 49 21 78 172 254 283 287 301 356 181 206 199 198 193 188 186 182 178 171 170 167 163 164 164 161 162 166 165 176 178 174 153 157 148 144 143 142 140 137 136 135 148 162 160 151 127 119 119 129 133 125 104 90 86 87 76
16 62 342 67 268 328 12 344 8 13 110 186 199 239 256 76 300 87 51 78 127 127 128 201 355 324 12 97 66 356 276 251 196 180 192 226 233 251 254 231 216 211 201 192 190 186 181 174 172 168 167 166 166 167 165 168 167 174 178 176 169 159 155 150 144 148 144 136 129 127 140 151 153 143 129 116 112 120 130 127 115 103 93 90 95 91
189 59 325 324 85 357 15 334 348 278 117 203 228 42 2 295 116 121 113 55 341 205 86 356 269 211 245 173 170 181 201 194 178 193 211 202 194 225 242 224 212 208 200 197 194 182 175 170 176 174 170 167 167 169 176 176 177 178 168 166 159 146 141 145 150 147 142 126 128 138 146 153 152 146 135 127 129 131 124 120 111 103 101 102 96 113
89 68 12 10 20 149 241 178 291 172 273 313 82 122 81 352 298 293 112 18 24 114 84 289 5 77 233 135 158 159 186 194 190 188 195 208 188 209 211 203 196 194 197 198 191 178 175 177 179 177 177 172 174 176 175 175 174 175 167 164 154 147 149 146 146 145 140 132 136 145 151 154 147 134 123 130 137 134 131 124 113 119 122 111 122 150
298 90 1 108 247 280 167 201 198 154 107 333 92 134 256 130 131 37 127 113 129 107 83 140 281 242 287 90 95 70 50 144 178 160 200 200 191 190 184 172 169 184 189 192 183 178 177 182 185 183 179 173 172 172 173 167 165 161 158 157 153 152 148 147 149 144 133 133 138 150 153 147 134 127 129 136 134 134 135 128 125 121 111 132 168 167
286 72 74 170 304 338 355 353 73 324 40 65 307 91 252 326 41 64 27 355 320 128 190 116 272 84 211 328 21 8 0 346 10 165 195 162 170 185 178 175 168 177 190 191 188 182 179 180 181 178 174 169 169 171 171 164 160 165 155 143 133 125 130 137 140 140 138 137 146 141 138 134 133 133 143 142 139 143 136 133 134 126 135 164 174 158
0 304 113 18 289 251 45 12 31 351 342 349 337 44 90 48 305 73 75 24 351 112 43 125 132 90 57 33 282 336 355 350 297 218 126 205 247 187 159 166 173 173 186 189 186 179 176 173 167 165 162 160 157 162 165 170 170 161 149 147 143 144 146 147 147 149 144 146 153 152 152 145 142 144 146 138 144 139 136 135 137 132 150 172 176 168
305 29 91 339 44 30 76 32 307 354 344 337 337 41 12 24 109 333 83 157 12 291 163 136 96 57 57 131 281 331 357 302 327 266 272 300 321 347 42 160 178 185 186 187 177 171 171 171 168 163 151 145 160 168 172 166 159 151 151 146 146 146 154 152 155 156 149 154 155 160 150 146 144 149 148 143 152 144 141 145 139 139 173 188 168 168
337 16 62 64 22 43 1 100 238 271 243 308 304 36 344 296 287 345 69 123 178 88 299 331 118 73 48 114 236 277 288 274 284 270 275 308 310 306 340 8 219 234 192 184 183 176 170 167 165 169 173 177 179 174 171 165 163 158 152 150 158 156 159 157 155 156 156 156 159 156 150 148 150 154 151 153 159 152 148 147 139 154 190 191 169 160
244 34 86 11 260 246 172 158 200 291 254 223 124 39 308 25 5 1 17 77 140 219 205 172 54 56 101 193 240 253 258 266 253 228 255 280 288 267 257 241 202 192 184 171 162 163 163 160 152 162 176 181 179 170 165 160 156 149 153 161 158 164 157 157 155 156 157 158 157 152 150 154 155 158 159 166 166 156 152 150 148 172 202 191 176 158
280 101 299 94 12 319 141 172 206 226 230 39 346 24 356 343 63 103 111 230 130 196 351 316 88 111 130 157 228 205 228 242 207 192 209 256 271 217 188 198 201 189 169 177 179 175 161 169 179 187 184 182 174 165 162 163 160 163 167 165 167 163 163 157 157 160 163 163 156 158 159 158 163 164 169 176 166 158 153 156 157 181 204 193 176 152
2 39 320 114 130 119 115 302 197 125 58 327 265 310 24 359 9 307 96 342 317 106 305 223 108 93 55 50 68 100 315 13 194 167 195 230 264 236 186 191 195 194 195 182 172 170 187 188 185 183 179 173 171 171 166 165 168 172 171 174 171 162 162 162 162 165 163 166 162 164 165 164 169 171 177 180 167 160 159 162 168 187 205 202 173 152
106 103 32 353 65 76 354 20 63 334 273 275 345 312 22 64 71 284 347 273 324 130 204 235 310 333 331 47 4 55 4 142 120 174 218 225 216 234 234 208 197 199 197 193 189 186 174 182 190 188 182 184 176 173 174 175 177 177 174 175 174 170 166 163 166 169 169 170 169 166 170 172 176 173 181 182 168 157 162 169 175 194 203 202 176 157
110 94 21 58 27 28 10 42 14 331 297 314 329 355 337 338 11 314 244 332 120 142 302 94 144 234 162 302 250 266 239 261 251 234 202 175 264 250 226 198 195 204 203 189 194 190 196 193 188 188 186 181 181 179 182 182 183 181 180 179 177 174 169 165 171 173 175 173 174 173 173 177 173 174 182 179 161 159 165 172 181 199 206 198 183 167
57 122 334 349 28 337 335 333 338 295 252 291 279 283 263 193 189 169 247 163 182 247 275 117 165 240 252 243 239 241 233 266 296 302 322 344 295 257 248 223 208 204 191 194 203 200 196 195 192 190 188 189 183 185 186 184 183 181 181 180 177 175 179 172 173 176 177 178 180 179 172 168 168 173 179 173 161 162 172 178 188 198 205 206 188 169
120 71 86 348 304 330 346 329 334 310 309 278 249 244 246 210 222 242 265 281 244 256 39 159 221 256 264 265 255 262 275 281 291 322 305 273 245 202 224 241 234 215 201 202 200 198 201 199 192 193 190 188 189 188 188 187 189 188 186 184 180 180 177 171 181 179 181 185 184 172 168 168 165 175 180 177 170 171 176 182 191 198 208 209 194 174
287 87 103 213 273 239 227 326 197 331 180 282 254 223 219 237 276 241 271 305 20 297 258 237 271 287 270 227 256 273 39 324 298 273 266 273 258 221 233 235 231 230 220 209 198 197 198 198 196 194 194 195 194 194 191 192 188 185 188 185 181 182 176 176 179 186 185 188 180 169 166 169 175 178 187 181 169 170 179 187 192 200 209 209 196 182
357 98 114 126 301 288 86 10 230 211 223 227 277 234 182 160 225 190 200 196 179 206 112 158 273 257 271 96 302 265 225 224 244 256 269 264 251 244 238 245 238 227 217 212 204 194 194 197 198 201 203 201 198 195 192 189 186 182 193 185 183 180 169 179 185 187 190 184 172 172 175 179 175 183 188 179 176 176 184 188 196 204 208 209 199 189
28 137 147 92 263 262 262 37 324 313 264 270 245 253 189 209 213 81 271 240 226 142 155 201 237 174 52 53 267 211 204 230 247 249 254 259 239 230 233 243 252 246 228 211 203 204 203 201 202 204 203 200 198 197 199 186 179 195 193 185 180 163 168 183 188 190 189 184 178 179 181 180 180 187 187 184 176 176 182 191 201 207 208 212 203 185
343 68 92 289 346 284 316 335 301 296 6 0 66 353 49 184 196 207 235 207 203 193 221 224 268 56 160 182 229 266 248 248 261 266 216 258 247 218 231 241 247 252 249 235 225 215 212 207 208 209 205 202 202 198 188 187 194 196 184 172 162 171 177 180 189 192 192 185 184 182 183 183 183 191 190 179 175 177 187 196 207 209 208 207 196 198
100 70 84 292 326 307 333 314 333 15 238 64 115 28 32 10 260 234 270 282 210 218 251 275 264 258 247 237 251 260 275 287 273 274 269 235 228 247 248 236 231 236 236 237 232 227 220 214 213 210 207 209 200 186 179 196 200 182 170 172 173 178 175 186 186 194 193 188 186 184 185 186 188 193 187 178 176 183 195 202 209 208 206 204 206 202
144 108 156 56 21 250 353 54 40 174 297 292 311 74 349 341 17 293 281 249 217 209 210 234 252 258 267 261 254 247 271 293 294 257 243 251 221 228 232 241 238 221 230 223 225 232 222 218 217 213 216 193 177 189 193 199 187 179 185 174 178 176 183 184 192 197 192 191 188 189 188 185 188 192 185 179 179 188 200 205 208 209 203 202 210 209
135 106 180 110 343 310 333 211 267 309 311 331 294 183 191 193 175 200 282 322 188 195 181 218 247 265 270 262 274 304 328 270 280 234 199 221 214 219 224 241 239 236 233 235 223 239 226 224 221 224 203 183 195 193 199 190 171 177 168 174 186 181 186 188 198 199 194 196 191 190 187 186 186 190 187 182 184 194 202 204 208 210 197 203 210 208
35 284 163 198 0 53 298 311 324 9 279 271 165 23 211 334 32 359 333 282 151 214 198 203 232 252 261 275 313 350 290 230 125 62 48 198 210 240 244 260 270 259 250 250 245 248 247 236 231 219 203 203 196 200 185 175 170 180 181 186 184 183 190 195 204 198 195 198 193 187 184 186 188 190 187 185 193 197 202 204 205 205 191 204 207 212
54 60 104 101 129 150 100 192 222 188 279 197 191 95 97 140 162 150 272 343 337 162 182 194 225 245 235 247 114 111 244 354 75 14 14 202 205 210 262 252 249 254 255 247 242 246 237 229 218 210 198 205 208 197 182 176 177 182 193 190 186 188 195 203 203 197 198 195 187 183 185 186 190 194 190 193 196 194 197 200 202 196 185 206 216 220
47 2 346 72 95 199 130 153 260 199 246 90 225 208 121 161 178 240 329 54 236 175 173 177 217 223 210 191 137 204 247 345 334 345 38 327 313 238 221 247 262 264 263 241 241 244 257 250 202 213 209 208 211 183 177 176 181 189 191 192 184 194 205 205 201 195 189 181 180 183 186 187 190 196 194 197 193 192 200 192 187 192 191 201 211 216
86 51 17 222 141 137 169 302 305 275 248 245 226 132 126 192 245 324 142 99 165 154 177 184 220 203 163 152 193 242 214 237 250 79 21 283 288 244 218 237 248 253 261 262 256 226 231 221 221 225 220 221 196 173 177 175 183 195 195 189 193 209 211 199 181 181 184 180 182 187 191 191 193 196 199 197 190 187 187 191 194 191 189 198 201 211
21 96 38 77 158 177 182 220 268 274 263 122 6 116 169 162 136 163 65 22 188 190 187 197 208 202 185 186 187 222 245 232 295 265 253 228 235 277 274 269 272 257 239 242 255 244 234 233 232 240 242 228 201 186 181 182 191 196 193 195 211 215 190 172 177 179 180 184 190 193 192 193 193 188 189 180 173 179 195 197 190 189 184 196 195 205
174 155 184 173 129 57 47 309 347 311 68 142 131 106 214 219 273 102 204 202 216 112 177 218 225 217 182 232 227 239 277 287 280 282 283 276 264 265 276 277 274 281 290 272 247 204 216 229 229 233 237 222 201 193 190 189 199 199 196 209 218 188 167 172 171 178 186 189 191 193 191 190 187 187 181 179 183 185 190 174 178 188 185 194 198 206
176 208 161 241 200 143 163 168 199 224 103 174 173 185 195 220 33 228 193 25 175 184 182 215 248 222 213 232 237 244 251 275 288 263 267 260 243 252 251 252 257 265 261 248 247 252 200 232 234 232 225 211 196 195 193 194 206 208 210 224 192 146 144 154 167 171 183 192 197 193 192 193 185 181 180 187 180 185 185 181 173 180 196 194 197 204
196 212 190 167 182 177 187 217 256 251 238 215 239 261 252 280 333 216 247 296 279 231 177 203 245 192 199 218 255 273 286 236 253 276 283 276 283 272 271 263 259 264 270 274 263 215 215 227 229 228 222 209 197 192 190 195 208 215 224 229 157 170 174 178 173 180 192 193 192 194 185 174 183 180 182 177 176 183 193 180 172 193 196 189 203 209
322 74 133 61 219 260 264 235 257 280 217 244 252 256 268 283 242 193 229 263 231 217 181 211 229 178 196 202 225 245 229 256 269 268 261 269 276 276 262 268 252 238 247 260 266 235 229 234 238 231 235 220 201 201 195 198 199 213 221 190 167 171 166 170 174 187 196 198 192 185 177 180 182 180 174 179 189 193 193 181 179 198 186 189 202 205
210 138 151 237 293 42 284 72 178 234 233 223 240 259 252 235 241 191 239 227 255 221 234 249 251 239 196 175 214 245 255 240 254 264 268 282 278 278 284 279 274 251 250 248 240 185 211 211 221 224 221 227 206 202 203 200 206 213 196 183 173 163 161 176 185 192 194 195 187 177 179 180 181 178 179 184 190 197 200 195 191 198 193 189 196 202
216 188 187 213 124 215 245 290 251 223 233 243 231 244 254 244 239 211 224 245 258 262 239 245 202 248 181 231 226 230 258 264 267 274 283 275 275 284 281 274 278 286 253 235 248 197 231 220 227 224 215 227 212 199 203 203 209 203 192 176 165 170 174 183 190 192 196 193 181 182 177 187 185 179 178 186 184 191 197 200 195 198 202 192 193 193
87 151 219 176 187 273 312 280 272 279 270 253 218 223 242 255 260 248 219 237 248 259 259 247 215 239 212 236 234 239 256 261 248 256 265 273 276 271 261 264 262 259 274 270 231 193 227 222 227 233 225 235 211 194 202 207 206 197 194 174 167 171 178 190 191 197 191 183 181 189 177 190 172 187 184 182 195 212 203 188 190 204 221 213 191 196
132 209 155 102 222 260 219 241 137 35 294 337 246 224 232 236 230 257 272 248 233 237 243 252 254 225 237 240 234 228 239 255 249 236 250 250 253 261 270 269 270 266 264 244 248 223 238 242 242 243 238 243 218 203 209 210 209 197 189 170 168 169 185 188 183 189 192 184 184 183 174 188 184 187 187 187 195 204 230 245 245 244 221 221 211 229
197 185 153 195 170 227 230 221 197 145 265 239 248 237 207 182 178 210 234 243 243 225 231 219 264 250 221 231 219 219 234 238 251 226 247 251 246 243 251 264 268 270 265 236 221 232 228 242 234 249 252 245 215 211 208 212 207 200 193 183 178 181 189 180 180 192 193 183 195 185 178 177 183 184 191 191 192 197 208 221 229 237 248 273 224 205